Location: Rathdrum
(47.8130°N, 116.8960°W)
Time: 22:29:31
(UTC-07:00)

Amateur Radio Satellites - All Passes

Search period start: 15 April 2014 21:59
Search period end: 16 April 2014 21:59
Location: Rathdrum, 47.8130°N, 116.8960°W

Satellite Date Start Highest point End Downlink Frequencies (MHz)
Time Altitude Azimuth
Saudisat 1A 15 Apr 22:03:41 22:06:34 17° 248° (WSW) 22:09:26 436.775 MHz
SO-50 15 Apr 22:10:12 22:11:40 11° 14° (NNE) 22:13:09 436.795 FM
MaSat-1 15 Apr 22:10:18 22:12:33 20° 113° (ESE) 22:14:37 437.345 MHz
ISS 15 Apr 22:23:22 22:26:44 78° 206° (SSW) 22:30:06 145.800 FM
FUNcube-1 15 Apr 22:24:35 22:28:50 84° 75° (ENE) 22:33:02 145.950 - 145.970 MHz USB
Oscar 11 15 Apr 22:47:48 22:51:02 21° 268° (W) 22:54:18 145.825 FM, Beacon 2401.500 USB
HO-68 15 Apr 22:56:27 23:00:49 17° 273° (W) 23:05:13 435.675 MHz FM
UOSAT-12 15 Apr 23:15:25 23:15:46 10° 359° (N) 23:16:08 437.025 FM, 437.400 FM
MaSat-1 15 Apr 23:48:55 23:50:58 18° 307° (NW) 23:52:54 437.345 MHz
SO-50 15 Apr 23:49:43 23:53:45 29° 38° (NE) 23:57:49 436.795 FM
ISS 16 Apr 00:00:58 00:03:03 16° 224° (SW) 00:05:09 145.800 FM
FUNcube-1 16 Apr 00:05:12 00:05:51 10° 273° (W) 00:06:30 145.950 - 145.970 MHz USB
PCSat 16 Apr 00:11:41 00:13:06 11° 101° (E) 00:14:32 145.825 MHz
OPAL 16 Apr 00:29:57 00:31:39 12° 49° (NE) 00:33:23 ?
UOSAT-12 16 Apr 00:55:04 00:57:56 16° 24° (NNE) 01:00:49 437.025 FM, 437.400 FM
Sapphire 16 Apr 01:05:48 01:10:28 30° 111° (ESE) 01:15:09 437.095 MHz 1200 baud AX-25 AFSK
SO-50 16 Apr 01:30:04 01:34:36 55° 237° (WSW) 01:39:11 436.795 FM
Oscar 19 16 Apr 01:30:58 01:34:56 22° 91° (E) 01:38:53 437.125 CW, 437.150 USB
Oscar 16 16 Apr 01:38:17 01:42:39 27° 93° (E) 01:46:59 437.025 USB, Beacon 2401.1428
Oscar 10/S400 16 Apr 01:41:07 01:52:04 14° 120° (ESE) 02:09:14 145.825 - 145.975 CW/USB, Beacon 145.810 USB
PCSat 16 Apr 01:50:09 01:55:31 70° 120° (ESE) 02:00:56 145.825 MHz
AO-Echo 16 Apr 02:03:58 02:07:11 17° 89° (E) 02:10:20 ?
OPAL 16 Apr 02:04:37 02:09:34 63° 69° (ENE) 02:14:37 ?
Uribyol 2 16 Apr 02:06:32 02:10:48 25° 93° (E) 02:15:02 436.500 FM
KITSAT 1 16 Apr 02:11:12 02:15:53 17° 100° (E) 02:20:34 435.175 FM
UOSAT-12 16 Apr 02:34:32 02:39:10 51° 46° (NE) 02:43:46 437.025 FM, 437.400 FM
AO-27 16 Apr 02:44:16 02:49:20 51° 100° (E) 02:54:21 436.795 MHz FM
Sapphire 16 Apr 02:48:24 02:53:40 51° 311° (NW) 02:58:58 437.095 MHz 1200 baud AX-25 AFSK
ITAMSAT 1 16 Apr 02:55:57 03:01:06 63° 102° (ESE) 03:06:13 435.822 SSB
TMSAT-1 16 Apr 03:06:25 03:10:20 21° 91° (E) 03:14:13 436.925 FM
Oscar 19 16 Apr 03:09:33 03:14:39 58° 290° (WNW) 03:19:45 437.125 CW, 437.150 USB
Oscar 16 16 Apr 03:17:15 03:22:13 47° 292° (WNW) 03:27:10 437.025 USB, Beacon 2401.1428
PCSat 16 Apr 03:34:52 03:39:26 27° 321° (NW) 03:44:02 145.825 MHz
AO-Echo 16 Apr 03:41:38 03:46:28 62° 288° (WNW) 03:51:08 ?
OPAL 16 Apr 03:45:21 03:48:55 19° 267° (W) 03:52:32 ?
Uribyol 2 16 Apr 03:45:33 03:50:32 49° 292° (WNW) 03:55:29 436.500 FM
Gurwin Techsat 1B 16 Apr 03:54:43 04:00:02 70° 103° (ESE) 04:05:19 435.225 FM
Uosat F 16 Apr 03:57:13 04:01:00 21° 92° (E) 04:04:46 435.120 FM
AO-7 16 Apr 04:00:18 04:06:19 21° 89° (E) 04:12:18 29.400 - 29.500 MHz
KITSAT 1 16 Apr 04:01:49 04:09:53 73° 120° (ESE) 04:17:59 435.175 FM
UOSAT-12 16 Apr 04:15:09 04:19:06 27° 245° (WSW) 04:23:00 437.025 FM, 437.400 FM
JAS-1B 16 Apr 04:19:22 04:24:44 39° 97° (E) 04:30:03 435.800 - 435.900 CW/SSB
AO-27 16 Apr 04:24:21 04:28:34 26° 299° (WNW) 04:32:47 436.795 MHz FM
Sapphire 16 Apr 04:35:11 04:38:25 16° 334° (NNW) 04:41:39 437.095 MHz 1200 baud AX-25 AFSK
ITAMSAT 1 16 Apr 04:36:19 04:40:11 22° 301° (WNW) 04:44:02 435.822 SSB
STRAND 1 16 Apr 04:40:18 04:42:06 12° 52° (NE) 04:43:54 ?
TMSAT-1 16 Apr 04:45:28 04:50:42 62° 289° (WNW) 04:55:54 436.925 FM
Oscar 19 16 Apr 04:52:03 04:52:57 10° 309° (NW) 04:53:51 437.125 CW, 437.150 USB
PCSat 16 Apr 05:23:19 05:24:50 11° 346° (NNW) 05:26:21 145.825 MHz
AO-Echo 16 Apr 05:23:53 05:24:14 10° 308° (NW) 05:24:35 ?
Uosat F 16 Apr 05:35:15 05:40:09 55° 290° (WNW) 05:45:01 435.120 FM
Gurwin Techsat 1B 16 Apr 05:35:40 05:39:30 21° 302° (WNW) 05:43:19 435.225 FM
AO-7 16 Apr 05:51:52 06:00:14 88° 110° (ESE) 06:08:35 29.400 - 29.500 MHz
Hamsat 16 Apr 05:56:15 05:58:37 14° 89° (E) 06:00:59 145.90 MHz
KITSAT 1 16 Apr 05:58:26 06:05:56 39° 324° (NW) 06:13:28 435.175 FM
JAS-1B 16 Apr 06:10:18 06:15:26 34° 298° (WNW) 06:20:28 435.800 - 435.900 CW/SSB
AO-40 16 Apr 06:13:02 11:14:00 29° 175° (S) 14:22:56 Beacon 2401.320
STRAND 1 16 Apr 06:15:17 06:20:22 67° 72° (ENE) 06:25:27 ?
TMSAT-1 16 Apr 06:27:58 06:29:36 11° 309° (NW) 06:31:14 436.925 FM
MaSat-1 16 Apr 06:30:38 06:32:16 14° 50° (NE) 06:34:00 437.345 MHz
JAS-2 16 Apr 06:30:47 06:32:46 12° 87° (E) 06:34:48 435.800 - 435.900 CW/SSB, 435.910 FM
RS-15 16 Apr 07:05:14 07:15:41 46° 112° (ESE) 07:25:50 29.354 - 29.394 USB, Beacon 29.352 USB
PCSat 16 Apr 07:09:29 07:10:57 11° 13° (NNE) 07:12:24 145.825 MHz
Hamsat 16 Apr 07:30:44 07:35:03 66° 286° (WNW) 07:39:22 145.90 MHz
AO-7 16 Apr 07:45:32 07:52:07 28° 311° (NW) 07:58:43 29.400 - 29.500 MHz
STRAND 1 16 Apr 07:56:34 08:00:03 18° 270° (W) 08:03:33 ?
KITSAT 1 16 Apr 07:57:56 08:03:56 22° 352° (N) 08:09:56 435.175 FM
Sapphire 16 Apr 08:06:54 08:10:16 16° 27° (NNE) 08:13:37 437.095 MHz 1200 baud AX-25 AFSK
MaSat-1 16 Apr 08:08:12 08:10:48 33° 245° (WSW) 08:13:46 437.345 MHz
SO-67 16 Apr 08:09:49 08:13:21 75° 102° (ESE) 08:16:50 435.3500 MHz FM
JAS-2 16 Apr 08:13:23 08:18:40 85° 105° (ESE) 08:24:19 435.800 - 435.900 CW/SSB, 435.910 FM
HO-68 16 Apr 08:30:36 08:34:40 16° 86° (E) 08:38:43 435.675 MHz FM
PCSat 16 Apr 08:51:47 08:56:22 27° 38° (NE) 09:00:55 145.825 MHz
RS-15 16 Apr 09:16:33 09:27:41 65° 316° (NW) 09:38:36 29.354 - 29.394 USB, Beacon 29.352 USB
Sapphire 16 Apr 09:49:36 09:54:57 54° 50° (NE) 10:00:14 437.095 MHz 1200 baud AX-25 AFSK
KITSAT 1 16 Apr 09:55:47 10:02:28 27° 22° (NNE) 10:09:06 435.175 FM
JAS-2 16 Apr 10:00:03 10:03:13 16° 303° (WNW) 10:06:28 435.800 - 435.900 CW/SSB, 435.910 FM
FUNcube-1 16 Apr 10:12:08 10:13:57 13° 89° (E) 10:15:47 145.950 - 145.970 MHz USB
HO-68 16 Apr 10:16:19 10:23:33 77° 106° (ESE) 10:30:44 435.675 MHz FM
Oscar 11 16 Apr 10:30:40 10:34:58 56° 100° (E) 10:39:15 145.825 FM, Beacon 2401.500 USB
PCSat 16 Apr 10:34:53 10:40:19 72° 240° (WSW) 10:45:42 145.825 MHz
RS-15 16 Apr 11:32:45 11:42:32 34° 347° (NNW) 11:52:15 29.354 - 29.394 USB, Beacon 29.352 USB
Sapphire 16 Apr 11:33:31 11:38:05 28° 250° (WSW) 11:42:38 437.095 MHz 1200 baud AX-25 AFSK
FUNcube-1 16 Apr 11:46:40 11:50:52 72° 286° (WNW) 11:55:08 145.950 - 145.970 MHz USB
KITSAT 1 16 Apr 11:51:27 11:59:33 65° 48° (NE) 12:07:34 435.175 FM
HO-68 16 Apr 12:04:51 12:10:36 27° 306° (NW) 12:16:22 435.675 MHz FM
Oscar 11 16 Apr 12:07:48 12:10:47 18° 299° (WNW) 12:13:45 145.825 FM, Beacon 2401.500 USB
Saudisat 1A 16 Apr 12:11:55 12:16:16 53° 122° (ESE) 12:20:38 436.775 MHz
PCSat 16 Apr 12:21:04 12:22:45 11° 258° (WSW) 12:24:26 145.825 MHz
AO-27 16 Apr 12:28:43 12:32:11 18° 57° (ENE) 12:35:39 436.795 MHz FM
ITAMSAT 1 16 Apr 12:39:48 12:43:41 22° 59° (ENE) 12:47:34 435.822 SSB
Oscar 19 16 Apr 12:50:59 12:55:49 43° 67° (ENE) 13:00:42 437.125 CW, 437.150 USB
Oscar 16 16 Apr 12:58:29 13:03:28 53° 69° (ENE) 13:08:29 437.025 USB, Beacon 2401.1428
AO-7 16 Apr 13:16:15 13:19:41 13° 33° (NNE) 13:23:07 29.400 - 29.500 MHz
AO-Echo 16 Apr 13:19:27 13:24:11 35° 66° (ENE) 13:28:50 ?
JAS-1B 16 Apr 13:21:57 13:24:57 13° 48° (NE) 13:27:47 435.800 - 435.900 CW/SSB
Uribyol 2 16 Apr 13:27:38 13:32:38 53° 69° (ENE) 13:37:40 436.500 FM
Gurwin Techsat 1B 16 Apr 13:40:56 13:45:09 25° 61° (ENE) 13:49:23 435.225 FM
KITSAT 1 16 Apr 13:47:22 13:54:33 37° 250° (WSW) 14:01:42 435.175 FM
RS-15 16 Apr 13:48:34 13:58:36 38° 22° (NNE) 14:08:41 29.354 - 29.394 USB, Beacon 29.352 USB
Saudisat 1A 16 Apr 13:52:15 13:56:08 28° 322° (NW) 14:00:01 436.775 MHz
AO-27 16 Apr 14:05:56 14:11:08 78° 256° (WSW) 14:16:21 436.795 MHz FM
OPAL 16 Apr 14:13:09 14:15:13 12° 89° (E) 14:17:16 ?
ITAMSAT 1 16 Apr 14:17:37 14:22:45 63° 258° (WSW) 14:27:55 435.822 SSB
TMSAT-1 16 Apr 14:30:16 14:35:16 44° 67° (ENE) 14:40:16 436.925 FM
Oscar 19 16 Apr 14:30:55 14:35:20 28° 266° (W) 14:39:47 437.125 CW, 437.150 USB
Oscar 16 16 Apr 14:39:07 14:43:09 23° 268° (W) 14:47:13 437.025 USB, Beacon 2401.1428
Oscar 10/S400 16 Apr 14:40:40 15:42:57 17° 269° (W) 17:25:23 145.825 - 145.975 CW/USB, Beacon 145.810 USB
AO-Echo 16 Apr 14:58:06 15:02:56 36° 264° (W) 15:07:41 ?
AO-7 16 Apr 15:02:44 15:10:19 42° 57° (ENE) 15:17:55 29.400 - 29.500 MHz
JAS-1B 16 Apr 15:06:36 15:14:25 55° 68° (ENE) 15:21:00 435.800 - 435.900 CW/SSB
Uribyol 2 16 Apr 15:08:22 15:12:26 23° 268° (W) 15:16:32 436.500 FM
Uosat F 16 Apr 15:13:32 15:18:15 42° 67° (ENE) 15:22:59 435.120 FM
Gurwin Techsat 1B 16 Apr 15:19:34 15:24:47 56° 259° (W) 15:30:02 435.225 FM
Saudisat 1A 16 Apr 15:36:05 15:37:13 11° 346° (NNW) 15:38:21 436.775 MHz
SO-50 16 Apr 15:49:21 15:52:41 21° 113° (ESE) 15:56:03 436.795 FM
OPAL 16 Apr 15:49:38 15:54:53 82° 107° (ESE) 16:00:07 ?
AO-27 16 Apr 15:50:06 15:51:31 11° 275° (W) 15:52:56 436.795 MHz FM
RS-15 16 Apr 16:01:42 16:12:42 83° 51° (NE) 16:23:55 29.354 - 29.394 USB, Beacon 29.352 USB
TMSAT-1 16 Apr 16:10:46 16:15:21 29° 266° (W) 16:19:57 436.925 FM
ISS 16 Apr 16:44:50 16:47:47 29° 143° (SE) 16:50:45 145.800 FM
Uosat F 16 Apr 16:52:53 16:57:11 28° 265° (W) 17:01:31 435.120 FM
Hamsat 16 Apr 16:53:27 16:56:06 17° 61° (ENE) 16:58:47 145.90 MHz
AO-7 16 Apr 16:54:52 17:02:56 55° 258° (WSW) 17:11:04 29.400 - 29.500 MHz
JAS-1B 16 Apr 16:57:53 17:05:13 35° 264° (W) 17:11:33 435.800 - 435.900 CW/SSB
SO-50 16 Apr 17:28:27 17:32:53 59° 312° (NW) 17:37:23 436.795 FM
OPAL 16 Apr 17:29:42 17:33:09 18° 306° (NW) 17:36:37 ?
RS-15 16 Apr 18:14:52 18:23:56 32° 255° (WSW) 18:33:12 29.354 - 29.394 USB, Beacon 29.352 USB
ISS 16 Apr 18:21:01 18:24:22 67° 341° (NNW) 18:27:44 145.800 FM
STRAND 1 16 Apr 18:23:36 18:26:54 17° 90° (E) 18:30:11 ?
Hamsat 16 Apr 18:27:31 18:31:40 59° 260° (W) 18:35:52 145.90 MHz
UOSAT-12 16 Apr 18:28:54 18:33:11 42° 120° (ESE) 18:37:35 437.025 FM, 437.400 FM
JAS-2 16 Apr 18:29:14 18:34:54 53° 70° (ENE) 18:40:06 435.800 - 435.900 CW/SSB, 435.910 FM
SO-67 16 Apr 18:46:51 18:50:09 42° 72° (ENE) 18:53:29 435.3500 MHz FM
AO-7 16 Apr 18:56:31 18:57:42 10° 279° (W) 18:58:52 29.400 - 29.500 MHz
Saudisat 1A 16 Apr 18:56:32 19:00:08 23° 34° (NE) 19:03:42 436.775 MHz
HO-68 16 Apr 19:03:29 19:08:26 21° 49° (NE) 19:13:24 435.675 MHz FM
SO-50 16 Apr 19:11:34 19:14:24 16° 335° (NNW) 19:17:15 436.795 FM
ISS 16 Apr 19:58:14 20:01:27 41° 1° (N) 20:04:40 145.800 FM
STRAND 1 16 Apr 20:01:32 20:06:38 71° 288° (WNW) 20:11:41 ?
UOSAT-12 16 Apr 20:09:13 20:13:26 35° 320° (NW) 20:17:45 437.025 FM, 437.400 FM
JAS-2 16 Apr 20:15:32 20:20:17 25° 266° (W) 20:24:44 435.800 - 435.900 CW/SSB, 435.910 FM
SO-67 16 Apr 20:21:33 20:23:33 14° 269° (W) 20:25:33 435.3500 MHz FM
Saudisat 1A 16 Apr 20:35:46 20:40:11 70° 235° (SW) 20:44:32 436.775 MHz
HO-68 16 Apr 20:48:00 20:55:08 81° 70° (ENE) 21:02:19 435.675 MHz FM
FUNcube-1 16 Apr 21:12:09 21:14:50 17° 61° (ENE) 21:17:30 145.950 - 145.970 MHz USB
Oscar 11 16 Apr 21:28:57 21:33:13 68° 73° (ENE) 21:37:32 145.825 FM, Beacon 2401.500 USB
ISS 16 Apr 21:35:07 21:38:30 76° 22° (NNE) 21:41:52 145.800 FM
STRAND 1 16 Apr 21:42:55 21:44:56 12° 307° (NW) 21:46:56 ?
UOSAT-12 16 Apr 21:52:51 21:54:59 13° 343° (NNW) 21:57:07 437.025 FM, 437.400 FM
